Regional Weather Roundup
Issued by NWS

Home | Current Version | Previous Version | Text Only | Print | Product List | Glossary On
Versions: 1 2 3 4 5 6 7 8 9 10 11 12 13 14 15 16 17 18 19 20 21 22 23 24 25 26 27 28 29 30 31 32 33 34 35 36 37 38 39 40 41 42 43 44 45 46 47 48 49 50
000
ASUS43 KDTX 271810
RWRMI
MICHIGAN HOURLY REGIONAL WEATHER ROUNDUP
NATIONAL WEATHER SERVICE DETROIT/PONTIAC MI
100 PM EST SAT DEC 27 2014

NOTE: "FAIR" INDICATES FEW OR NO CLOUDS BELOW 12,000 FEET WITH NO
SIGNIFICANT WEATHER AND/OR OBSTRUCTION TO VISIBILITY.

MIZ047>049-052>055-059>063-066>070-074>076-081>083-271900-
SOUTHEAST LOWER MICHIGAN

CITY           SKY/WX    TMP DP  RH WIND       PRES   REMARKS
ADRIAN         CLOUDY    45  44  97 SW16      30.00F FOG
6HR MIN TEMP:  42; 6HR MAX TEMP:  45; 6HR PCP: TRACE;

ALMA           CLOUDY    46  44  93 SW17G26   29.88F FOG
ANN ARBOR      CLOUDY    45  43  93 SW13      29.97F FOG
BAD AXE        CLOUDY    46  44  96 S18G24    29.85F
DETROIT CITY   CLOUDY    47  42  83 SW13      29.98F
6HR MIN TEMP:  42; 6HR MAX TEMP:  47; 6HR PCP:  0.03;

DETROIT        CLOUDY    47  44  90 S15       29.99F
6HR MIN TEMP:  42; 6HR MAX TEMP:  47; 6HR PCP:  0.06;

FLINT          CLOUDY    48  43  82 S14G24    29.90F
6HR MIN TEMP:  44; 6HR MAX TEMP:  48; 6HR PCP: TRACE;

GROSSE ILE     CLOUDY    45  43  93 SW12      29.98F
HILLSDALE      CLOUDY    46  46 100 SW12G21   29.97F FOG
6HR MIN TEMP:  43; 6HR MAX TEMP:  46;

HOWELL         CLOUDY    45  44  96 S12       29.92F
6HR MIN TEMP:  42; 6HR MAX TEMP:  45;


CITY           SKY/WX    TMP DP  RH WIND       PRES   REMARKS
JACKSON        CLOUDY    46  43  89 SW16G23   29.94F
6HR MIN TEMP:  43; 6HR MAX TEMP:  46; 6HR PCP:  0.02;

LAMBERTVILLE   CLOUDY    48  43  81 SW12G21   30.01F
LANSING        CLOUDY    47  43  86 SW22      29.92F
6HR MIN TEMP:  44; 6HR MAX TEMP:  47; 6HR PCP: TRACE;

LAPEER         NOT AVBL
MASON          CLOUDY    46  42  89 SW9       29.93F
MONROE         CLOUDY    46  45  93 SW15G22   29.99S
MT. CLEMENS    CLOUDY    46  41  84 SW14      29.94F
6HR MIN TEMP:  39; 6HR MAX TEMP:  46; 6HR PCP:  0.02;

PONTIAC        CLOUDY    44  42  93 SW10G20   29.94F FOG
6HR MIN TEMP:  41; 6HR MAX TEMP:  44; 6HR PCP:  0.04;

PORT HOPE        N/A     46  41  82 VRB6G18   29.83F
6HR MIN TEMP:  42; 6HR MAX TEMP:  46;

PORT HURON     CLOUDY    45  41  87 S13G23    29.95F
TRI CITIES     CLOUDY    48  43  82 SW15G26   29.86F
6HR MIN TEMP:  43; 6HR MAX TEMP:  48;

YPSILANTI      CLOUDY    48  43  82 SW16      29.98F HAZE
6HR MIN TEMP:  46; 6HR MAX TEMP:  48; 6HR PCP:  0.05;

$$
MIZ043>046-050>051-056>058-064>065-071>073-077>080-271900-
SOUTHWEST LOWER MICHIGAN

CITY           SKY/WX    TMP DP  RH WIND       PRES   REMARKS
BATTLE CREEK   CLOUDY    47  44  90 SW20G28   29.95F FOG
6HR MIN TEMP:  45; 6HR MAX TEMP:  47; 6HR PCP: TRACE;

BENTON HARBOR  CLOUDY    47  46  97 SW16G24   29.95F
6HR MIN TEMP:  44; 6HR MAX TEMP:  47;

BIG RAPIDS     LGT SNOW  46  46 100 SW15G21   29.81F
6HR MIN TEMP:  39; 6HR MAX TEMP:  46; 6HR PCP:  0.01;

COLDWATER      CLOUDY    45  45  97 SW16G22   29.98S FOG
6HR MIN TEMP:  43; 6HR MAX TEMP:  45;

HOLLAND        CLOUDY    49  45  86 SW25G33   29.91F FOG
6HR MIN TEMP:  47; 6HR MAX TEMP:  50; 6HR PCP: TRACE;

GRAND RAPIDS   CLOUDY    47  44  90 SW13      29.90F
6HR MIN TEMP:  44; 6HR MAX TEMP:  47;

KALAMAZOO      CLOUDY    47  44  90 S16       29.95F
6HR MIN TEMP:  45; 6HR MAX TEMP:  47;

MARSHALL       CLOUDY    45  44  97 SW14G22   29.95S FOG
MUSKEGON       FOG       45  43  93 S21G30    29.87F VSB 3/4
6HR MIN TEMP:  44; 6HR MAX TEMP:  48; 6HR PCP: TRACE;

$$
MIZ016>042-271900-
NORTHERN LOWER MICHIGAN

CITY           SKY/WX    TMP DP  RH WIND       PRES   REMARKS
ALPENA         CLOUDY    45  41  86 S9        29.74F
6HR MIN TEMP:  34; 6HR MAX TEMP:  45; 6HR PCP: TRACE;

BEAVER ISLAND  LGT RAIN  35  35 100 N3        29.72F
6HR MIN TEMP:  35; 6HR MAX TEMP:  37;

BELLAIRE       LGT RAIN  45  43  93 S7        29.74F
6HR MIN TEMP:  37; 6HR MAX TEMP:  45;

CADILLAC       LGT RAIN  43  42  97 SW20      29.77S
CHARLEVOIX     MIX PCPN  44  44  99 SW13G22   29.74F
6HR MIN TEMP:  36; 6HR MAX TEMP:  44;

FRANKFORT      RAIN      42  42  99 SW10G23   29.75F VSB 3/4
GAYLORD        LGT RAIN  39  39 100 SW13      29.72F FOG
6HR MIN TEMP:  34; 6HR MAX TEMP:  39; 6HR PCP:  0.03;

GRAYLING       LGT RAIN  41  41 100 S12G17    29.75F
6HR MIN TEMP:  36; 6HR MAX TEMP:  41;

HARBOR SPRINGS RAIN      43  42  96 SW9       29.71S
HOUGHTON LAKE  CLOUDY    42  41  96 S16G24    29.77F FOG
6HR MIN TEMP:  37; 6HR MAX TEMP:  42; 6HR PCP: TRACE;

MANISTEE       CLOUDY    46  43  87 SW17G32   29.77F
OSCODA         CLOUDY    44  42  91 SW18G25   29.79F
PELLSTON       LGT RAIN  40  39  97 S5        29.71F FOG
6HR MIN TEMP:  34; 6HR MAX TEMP:  40; 6HR PCP:  0.21;

TRAVERSE CITY  LGT RAIN  46  44  93 VRB6      29.73F FOG
6HR MIN TEMP:  39; 6HR MAX TEMP:  47; 6HR PCP:  0.17;

$$
MIZ007>008-015-271900-
EASTERN UPPER MICHIGAN

CITY           SKY/WX    TMP DP  RH WIND       PRES   REMARKS
KINROSS        CLOUDY    36  36 100 W5        29.72F
6HR MIN TEMP:  34; 6HR MAX TEMP:  36; 6HR PCP:  0.12;

MACKINAC ISLAN LGT SNOW  38  38 100 S6        29.69F
6HR MIN TEMP:  36; 6HR MAX TEMP:  38; 6HR PCP:  0.17;

NEWBERRY       LGT SNOW  31  31 100 N8        29.71F VSB 1
6HR MIN TEMP:  31; 6HR MAX TEMP:  32; 6HR PCP:  0.12;

S. S. MARIE    LGT RAIN  35  34  96 W9        29.73F FOG
6HR MIN TEMP:  32; 6HR MAX TEMP:  35; 6HR PCP:  0.14;

$$
MIZ004>006-011>014-085-271900-
CENTRAL UPPER MICHIGAN

CITY           SKY/WX    TMP DP  RH WIND       PRES   REMARKS
MANISTIQUE     LGT SNOW  32  32 100 N9        29.73F VSB 1
6HR MIN TEMP:  32; 6HR MAX TEMP:  32; 6HR PCP:  0.13;

ESCANABA       CLOUDY    34  28  80 N8        29.76R
6HR MIN TEMP:  32; 6HR MAX TEMP:  34; 6HR PCP:  0.15;

MENOMINEE      CLOUDY    34  30  86 W5        29.76F
6HR MIN TEMP:  34; 6HR MAX TEMP:  34; 6HR PCP:  0.11;

SAWYER-GWINN   SNOW      32  30  93 NE14      29.76F VSB 1/4
$$
MIZ001>003-009>011-084-271900-
WESTERN UPPER MICHIGAN

CITY           SKY/WX    TMP DP  RH WIND       PRES   REMARKS
IRON MOUNTAIN  SNOW      31  29  92 NW10      29.78F VSB 1/2
6HR MIN TEMP:  31; 6HR MAX TEMP:  32; 6HR PCP:  0.18;

HOUGHTON       LGT SNOW  28  23  81 N10       29.85F
6HR MIN TEMP:  27; 6HR MAX TEMP:  28; 6HR PCP:  0.01;

COPPER HARBOR    N/A     30  25  81 NE15      29.87F
6HR MIN TEMP:  30; 6HR MAX TEMP:  32; 6HR PCP:  0.06;

IRONWOOD       CLOUDY    27  25  93 N10       29.89S
6HR MIN TEMP:  27; 6HR MAX TEMP:  28;

$$

ABBREVIATIONS USED IN REMARKS
   TC - TEMPERATURE IN CELSIUS
  WCI - WIND CHILL INDEX
   HX - HEAT INDEX
  VSB - VISIBILITY



USA.gov is the U.S. government's official web portal to all federal, state and local government web resources and services.